Location: Aalen
(48.8330°N, 10.1000°E)
Time: 04:19:39
(UTC+01:00)

Envisat - Pass Details

Date: 02 December 2022
Orbit: 763 x 765 km, 98.2° (Epoch: 28 January)

Event Time Altitude Azimuth Distance (km) Brightness Sun altitude
Rises 17:16:16 0° 222° (SW) 3,222 7.6 -8.2°
Reaches altitude 10° 17:20:15 10° 254° (WSW) 2,304 7.1 -8.8°
Maximum altitude 17:22:04 12° 275° (W) 2,183 6.4 -9.1°
Drops below altitude 10° 17:23:53 10° 296° (WNW) 2,311 6.1 -9.4°
Sets 17:27:55 0° 328° (NNW) 3,244 6.4 -10.0°
